Location: Cella
(44.7333°N, 10.5667°E)
Time: 08:43:11
(UTC+00:00)

Cosmos 1777 Rocket - Pass Details

Date: 25 June 2021
Orbit: 757 x 776 km, 74.0° (Epoch: 28 July)

Event Time Altitude Azimuth Distance (km) Brightness Sun altitude
Rises 21:49:27 0° 337° (NNW) 3,263 9.0 -18.8°
Reaches altitude 10° 21:51:50 10° 336° (NNW) 2,333 7.8 -19.0°
Maximum altitude 21:57:08 76° 252° (WSW) 805 4.0 -19.3°
Enters shadow 21:59:14 37° 174° (S) 1,183 4.5 -19.4°
